Weather History for KPWC - November, 2013

Change the Weather History Date:

Monday, November 25, 2013

  Actual Average Record
Temperature  
Mean Temperature 28 °F -  
Max Temperature 35 °F 32 °F 46 °F (1997)
Min Temperature 21 °F 17 °F -4 °F (2010)
Degree Days  
Heating Degree Days 37    
Moisture  
Dew Point 23 °F    
Average Humidity 74    
Maximum Humidity 93    
Minimum Humidity 64    
Precipitation  
Precipitation 0.00 in - - ()
Sea Level Pressure  
Sea Level Pressure 29.93 in    
Wind  
Wind Speed 8 mph (WNW)    
Max Wind Speed 16 mph    
Max Gust Speed 29 mph    
Visibility 10 miles    
Events Snow    
Averages and records for this station are not official NWS values.
T = Trace of Precipitation, MM = Missing Value Source: NWS Daily Summary

Daily Weather History Graph

Daily Weather History Graph

Search for Another Location

Airport or City:

Trip Planner

Search our weather history database for the weather conditions in past years. The results will help you decide how hot, cold, wet, or windy it might be!

Date:

Astronomy

Nov. 25, 2013 Rise Set
Actual Time 7:34 AM CST 4:34 PM CST
Civil Twilight 7:00 AM CST 5:08 PM CST
Nautical Twilight 6:22 AM CST 5:46 PM CST
Astronomical Twilight 5:46 AM CST 6:22 PM CST
Moon No Moon Rise 12:37 PM CST (11/25)
Length of Visible Light 10h 08m
Length of Day
9h 00m
Waning Gibbous, 51% of the Moon is Illuminated
Nov 25
Waning Gibbous
Nov 25
Last Quarter
Dec 2
New
Dec 9
First Quarter
Dec 17
Full

Hourly Weather History & Observations

Time (CST) Temp. Windchill Dew Point Humidity Pressure Visibility Wind Dir Wind Speed Gust Speed Precip Events Conditions
12:13 AM 35.6 °F 29.2 °F 26.6 °F 70% 29.78 in 10.0 mi SW 8.1 mph - N/A   Scattered Clouds
12:32 AM 35.6 °F 29.9 °F 26.6 °F 70% 29.78 in 10.0 mi SW 6.9 mph - N/A   Clear
12:53 AM 33.8 °F 30.8 °F 26.6 °F 75% 29.78 in 10.0 mi WSW 3.5 mph - N/A   Clear
1:12 AM 33.8 °F 27.7 °F 26.6 °F 75% 29.78 in 10.0 mi WSW 6.9 mph - N/A   Clear
1:32 AM 33.8 °F 29.6 °F 26.6 °F 75% 29.78 in 10.0 mi West 4.6 mph - N/A   Clear
1:53 AM 33.8 °F 30.8 °F 26.6 °F 75% 29.79 in 10.0 mi West 3.5 mph - N/A   Clear
2:12 AM 33.8 °F 28.6 °F 26.6 °F 75% 29.79 in 10.0 mi West 5.8 mph - N/A   Mostly Cloudy
2:32 AM 33.8 °F 30.8 °F 26.6 °F 75% 29.79 in 10.0 mi West 3.5 mph - N/A   Overcast
2:53 AM 33.8 °F 28.6 °F 26.6 °F 75% 29.80 in 10.0 mi West 5.8 mph - N/A   Overcast
3:12 AM 33.8 °F 29.6 °F 26.6 °F 75% 29.80 in 10.0 mi West 4.6 mph - N/A   Overcast
3:32 AM 33.8 °F 28.6 °F 26.6 °F 75% 29.81 in 10.0 mi West 5.8 mph - N/A   Overcast
3:53 AM 33.8 °F 28.6 °F 26.6 °F 75% 29.81 in 10.0 mi West 5.8 mph - N/A   Overcast
4:12 AM 33.8 °F 27.7 °F 26.6 °F 75% 29.82 in 10.0 mi West 6.9 mph - N/A   Overcast
4:33 AM 33.8 °F 27.7 °F 26.6 °F 75% 29.82 in 10.0 mi West 6.9 mph - N/A   Overcast
4:53 AM 32.0 °F 25.6 °F 26.6 °F 80% 29.83 in 10.0 mi West 6.9 mph - N/A   Overcast
5:12 AM 32.0 °F 24.2 °F 26.6 °F 80% 29.83 in 10.0 mi West 9.2 mph - N/A   Overcast
5:33 AM 33.8 °F 27.7 °F 26.6 °F 75% 29.84 in 10.0 mi West 6.9 mph 17.3 mph N/A   Overcast
5:53 AM 33.8 °F 27.0 °F 26.6 °F 75% 29.84 in 10.0 mi West 8.1 mph - N/A   Overcast
6:13 AM 32.0 °F 24.8 °F 26.6 °F 80% 29.84 in 10.0 mi West 8.1 mph - N/A   Overcast
6:33 AM 32.0 °F 26.4 °F 26.6 °F 80% 29.85 in 10.0 mi West 5.8 mph - N/A   Overcast
6:53 AM 32.0 °F 25.6 °F 26.6 °F 80% 29.86 in 10.0 mi West 6.9 mph - N/A   Overcast
7:12 AM 32.0 °F 24.2 °F 26.6 °F 80% 29.87 in 10.0 mi West 9.2 mph - N/A   Overcast
7:33 AM 32.0 °F 24.8 °F 26.6 °F 80% 29.87 in 10.0 mi West 8.1 mph - N/A   Overcast
7:52 AM 32.0 °F 25.6 °F 26.6 °F 80% 29.88 in 10.0 mi West 6.9 mph - N/A   Overcast
8:13 AM 32.0 °F 25.6 °F 26.6 °F 80% 29.89 in 10.0 mi West 6.9 mph - N/A   Overcast
8:33 AM 32.0 °F 27.5 °F 26.6 °F 80% 29.90 in 10.0 mi West 4.6 mph - N/A   Overcast
8:52 AM 32.0 °F 25.6 °F 24.8 °F 75% 29.90 in 10.0 mi WNW 6.9 mph - N/A   Mostly Cloudy
9:13 AM 33.8 °F 27.0 °F 24.8 °F 70% 29.90 in 10.0 mi WNW 8.1 mph 17.3 mph N/A   Scattered Clouds
9:33 AM 33.8 °F 27.0 °F 24.8 °F 70% 29.91 in 10.0 mi WNW 8.1 mph 17.3 mph N/A   Mostly Cloudy
9:53 AM 33.8 °F 27.0 °F 24.8 °F 70% 29.92 in 10.0 mi West 8.1 mph - N/A   Overcast
10:13 AM 33.8 °F 27.7 °F 26.6 °F 75% 29.92 in 10.0 mi West 6.9 mph - N/A   Overcast
10:33 AM 33.8 °F 25.8 °F 26.6 °F 75% 29.93 in 10.0 mi WNW 10.4 mph - N/A   Overcast
10:53 AM 33.8 °F 28.6 °F 26.6 °F 75% 29.93 in 10.0 mi WNW 5.8 mph - N/A   Overcast
11:13 AM 33.8 °F 27.7 °F 26.6 °F 75% 29.92 in 10.0 mi West 6.9 mph - N/A   Overcast
11:33 AM 35.6 °F 29.2 °F 24.8 °F 65% 29.92 in 10.0 mi WNW 8.1 mph - N/A   Overcast
11:53 AM 35.6 °F 28.6 °F 24.8 °F 65% 29.92 in 10.0 mi West 9.2 mph - N/A   Overcast
12:12 PM 35.6 °F 29.2 °F 24.8 °F 65% 29.93 in 10.0 mi WNW 8.1 mph - N/A   Overcast
12:33 PM 35.6 °F 28.0 °F 24.8 °F 65% 29.93 in 10.0 mi WNW 10.4 mph 18.4 mph N/A   Overcast
12:53 PM 33.8 °F 25.8 °F 24.8 °F 70% 29.93 in 10.0 mi West 10.4 mph - N/A   Overcast
1:12 PM 33.8 °F 25.8 °F 24.8 °F 70% 29.93 in 10.0 mi West 10.4 mph 16.1 mph N/A   Overcast
1:32 PM 33.8 °F 25.3 °F 24.8 °F 70% 29.93 in 10.0 mi West 11.5 mph 19.6 mph N/A   Overcast
1:53 PM 33.8 °F 26.4 °F 24.8 °F 70% 29.93 in 10.0 mi West 9.2 mph - N/A   Overcast
2:13 PM 33.8 °F 24.8 °F 24.8 °F 70% 29.93 in 10.0 mi WNW 12.7 mph 19.6 mph N/A   Overcast
2:33 PM 33.8 °F 24.3 °F 24.8 °F 70% 29.94 in 10.0 mi WNW 13.8 mph 20.7 mph N/A   Overcast
2:53 PM 33.8 °F 27.0 °F 24.8 °F 70% 29.94 in 10.0 mi West 8.1 mph - N/A   Overcast
3:13 PM 33.8 °F 24.3 °F 24.8 °F 70% 29.95 in 10.0 mi West 13.8 mph 19.6 mph N/A   Overcast
3:33 PM 33.8 °F 24.3 °F 24.8 °F 70% 29.96 in 10.0 mi WNW 13.8 mph 21.9 mph N/A Snow Light Snow
3:52 PM 30.2 °F 21.3 °F 28.4 °F 93% 29.97 in 1.8 mi WNW 10.4 mph 19.6 mph N/A Snow Light Snow
4:13 PM 30.2 °F 18.9 °F 24.8 °F 80% 29.98 in 7.0 mi NW 16.1 mph 28.8 mph N/A Snow Light Snow
4:32 PM 30.2 °F 19.8 °F 21.2 °F 69% 29.99 in 10.0 mi WNW 13.8 mph 23.0 mph N/A   Overcast
4:53 PM 28.4 °F 19.1 °F 21.2 °F 74% 30.00 in 10.0 mi WNW 10.4 mph 21.9 mph N/A   Mostly Cloudy
5:13 PM 28.4 °F 19.7 °F 21.2 °F 74% 30.01 in 10.0 mi NW 9.2 mph 17.3 mph N/A   Overcast
5:33 PM 28.4 °F 17.5 °F 19.4 °F 69% 30.02 in 10.0 mi WNW 13.8 mph 23.0 mph N/A   Overcast
5:53 PM 28.4 °F 18.5 °F 17.6 °F 64% 30.03 in 10.0 mi NW 11.5 mph 24.2 mph N/A   Overcast
6:12 PM 26.6 °F 15.2 °F 17.6 °F 69% 30.03 in 10.0 mi WNW 13.8 mph 21.9 mph N/A   Overcast
6:33 PM 26.6 °F 16.8 °F 17.6 °F 69% 30.03 in 10.0 mi WNW 10.4 mph 21.9 mph N/A   Overcast
6:52 PM 26.6 °F 16.8 °F 17.6 °F 69% 30.03 in 10.0 mi NW 10.4 mph 16.1 mph N/A   Overcast
7:12 PM 26.6 °F 16.2 °F 17.6 °F 69% 30.04 in 10.0 mi WNW 11.5 mph - N/A   Overcast
7:33 PM 26.6 °F 16.2 °F 17.6 °F 69% 30.05 in 10.0 mi NW 11.5 mph 18.4 mph N/A   Overcast
7:53 PM 26.6 °F 16.2 °F 15.8 °F 64% 30.05 in 10.0 mi NW 11.5 mph 17.3 mph N/A   Overcast
8:12 PM 24.8 °F 16.1 °F 15.8 °F 69% 30.05 in 10.0 mi WNW 8.1 mph - N/A   Overcast
8:33 PM 24.8 °F 16.9 °F 15.8 °F 69% 30.06 in 10.0 mi NW 6.9 mph - N/A   Overcast
8:53 PM 24.8 °F 15.3 °F 15.8 °F 69% 30.06 in 10.0 mi NW 9.2 mph - N/A   Overcast
9:13 PM 24.8 °F 16.9 °F 15.8 °F 69% 30.06 in 10.0 mi WNW 6.9 mph 17.3 mph N/A Snow Light Snow
9:33 PM 24.8 °F 16.1 °F 15.8 °F 69% 30.06 in 10.0 mi NW 8.1 mph - N/A Snow Light Snow
9:53 PM 23.0 °F 13.9 °F 17.6 °F 80% 30.06 in 10.0 mi WNW 8.1 mph 16.1 mph N/A Snow Light Snow
10:13 PM 23.0 °F 13.1 °F 15.8 °F 74% 30.06 in 10.0 mi WNW 9.2 mph - N/A Snow Light Snow
10:33 PM 21.2 °F 13.6 °F 17.6 °F 86% 30.07 in 7.0 mi WNW 5.8 mph - N/A Snow Light Snow
10:53 PM 21.2 °F 14.9 °F 17.6 °F 86% 30.07 in 3.0 mi NW 4.6 mph - N/A Snow Light Snow
11:12 PM 21.2 °F 12.6 °F 17.6 °F 86% 30.07 in 7.0 mi WNW 6.9 mph 16.1 mph N/A Snow Light Snow
11:32 PM 21.2 °F 10.9 °F 17.6 °F 86% 30.07 in 7.0 mi WNW 9.2 mph - N/A Snow Light Snow
11:53 PM 21.2 °F 16.4 °F 17.6 °F 86% 30.07 in 7.0 mi WNW 3.5 mph - N/A Snow Light Snow